Koyo — JD2279 — position and weather

sailwx.info

Track history (hours):
 
Tides and Currents Weather Stations Pressure Air Temp Water Temp Dewpoint Dewpoint Depression Visibility Wind Speed Wind Dir Waves Ship Positions

Koyo

Last reported at 2014-Jul-25 02:32 UTC. Time now 2014-Jul-25 11:24 UTC.
Position N 34°35' E 134°51'.

Length 80 m; draft 3.6 m.

Type: Cargo ship. MMSI: 431301812.

Date/timePositionNaut miles runAvg speedWind from/ knotsBaromVisibWave heightAir tempDewpointWater temp
2014-Jul-25 02:32N 34°35' E 134°51'1111.0
2014-Jul-25 01:33N 34°36' E 135°04'9 8.5
2014-Jul-25 00:30N 34°40' E 135°14'0 0.0
2014-Jul-24 23:30N 34°40' E 135°14'1 1.1
2014-Jul-24 22:33N 34°39' E 135°15'0 0.0
2014-Jul-24 21:27N 34°39' E 135°15'0 0.0
2014-Jul-24 20:33N 34°39' E 135°15'4 4.3
2014-Jul-24 19:33N 34°36' E 135°10'1111.0
2014-Jul-24 18:32N 34°36' E 134°57'11611.3
2014-Jul-24 08:19N 34°03' E 132°42'2311.1
2014-Jul-24 06:13N 33°50' E 132°19'18 1.5
2014-Jul-23 18:14N 34°01' E 132°37'11610.8
2014-Jul-23 07:33N 34°35' E 134°50'1212.3
2014-Jul-23 06:33N 34°36' E 135°05'8 8.1
2014-Jul-23 05:31N 34°40' E 135°14'0 0.0
2014-Jul-23 04:25N 34°40' E 135°14'0 0.0
2014-Jul-23 03:13N 34°40' E 135°14'0 0.0
2014-Jul-23 02:33N 34°40' E 135°14'2 2.2
2014-Jul-23 01:33N 34°37' E 135°14'1111.2
2014-Jul-23 00:33N 34°37' E 135°01'1211.9
2014-Jul-22 23:31N 34°32' E 134°47'10010.0
2014-Jul-22 13:28N 34°05' E 132°50'1011.1
2014-Jul-22 12:33N 33°57' E 132°42'110 3.8
2014-Jul-21 07:33N 34°33' E 134°47'1413.7
2014-Jul-21 06:33N 34°36' E 135°03'10 9.8
2014-Jul-21 05:33N 34°40' E 135°15'0 0.2
2014-Jul-21 04:33N 34°39' E 135°14'0 0.0
2014-Jul-21 03:33N 34°39' E 135°14'1 0.5
2014-Jul-21 02:33N 34°39' E 135°15'1 0.7
2014-Jul-21 01:30N 34°38' E 135°15'1 1.0
2014-Jul-21 00:33N 34°38' E 135°14'1010.5
2014-Jul-20 23:34N 34°36' E 135°02'  
2014-Jul-18 05:19N 34°06' E 134°56'1012.9
2014-Jul-18 04:33N 34°16' E 134°59'1212.3
2014-Jul-18 03:33N 34°27' E 135°05'1413.6
2014-Jul-18 02:33N 34°38' E 135°15'2 1.3
2014-Jul-18 01:22N 34°40' E 135°14'0 0.0
2014-Jul-18 00:22N 34°40' E 135°14'0 0.1
2014-Jul-17 23:28N 34°40' E 135°14'1 1.1
2014-Jul-17 22:33N 34°39' E 135°15'0 0.1
2014-Jul-17 21:33N 34°39' E 135°15'4 3.8
2014-Jul-17 20:34N 34°36' E 135°11'1211.6
2014-Jul-17 19:34N 34°36' E 134°57'1 0.0
2014-Jul-16 06:33N 34°37' E 134°58'1010.5
2014-Jul-16 05:33N 34°37' E 135°11'1211.7
2014-Jul-16 04:34N 34°37' E 135°25'0 0.4
2014-Jul-16 03:33N 34°38' E 135°25'5 5.5
2014-Jul-16 02:34N 34°39' E 135°19'3 3.3
2014-Jul-16 01:33N 34°39' E 135°15'0 0.0
2014-Jul-16 00:33N 34°39' E 135°15'0 0.0
2014-Jul-15 23:33N 34°39' E 135°15'1 0.7
2014-Jul-15 22:34N 34°39' E 135°15'3 3.3
2014-Jul-15 21:33N 34°37' E 135°12'1312.9
2014-Jul-15 20:33N 34°36' E 134°56'  
Track history (hours):
 
Tides and Currents Weather Stations Pressure Air Temp Water Temp Dewpoint Dewpoint Depression Visibility Wind Speed Wind Dir Waves Ship Positions

Koyo

Last reported at 2014-Jul-25 02:32 UTC. Time now 2014-Jul-25 11:24 UTC.
Position N 34°35' E 134°51'.

Length 80 m; draft 3.6 m.

Type: Cargo ship. MMSI: 431301812.

Date/timePositionNaut miles runAvg speedWind from/ knotsBaromVisibWave heightAir tempDewpointWater temp
2014-Jul-25 02:32N 34°35' E 134°51'1111.0
2014-Jul-25 01:33N 34°36' E 135°04'9 8.5
2014-Jul-25 00:30N 34°40' E 135°14'0 0.0
2014-Jul-24 23:30N 34°40' E 135°14'1 1.1
2014-Jul-24 22:33N 34°39' E 135°15'0 0.0
2014-Jul-24 21:27N 34°39' E 135°15'0 0.0
2014-Jul-24 20:33N 34°39' E 135°15'4 4.3
2014-Jul-24 19:33N 34°36' E 135°10'1111.0
2014-Jul-24 18:32N 34°36' E 134°57'11611.3
2014-Jul-24 08:19N 34°03' E 132°42'2311.1
2014-Jul-24 06:13N 33°50' E 132°19'18 1.5
2014-Jul-23 18:14N 34°01' E 132°37'11610.8
2014-Jul-23 07:33N 34°35' E 134°50'1212.3
2014-Jul-23 06:33N 34°36' E 135°05'8 8.1
2014-Jul-23 05:31N 34°40' E 135°14'0 0.0
2014-Jul-23 04:25N 34°40' E 135°14'0 0.0
2014-Jul-23 03:13N 34°40' E 135°14'0 0.0
2014-Jul-23 02:33N 34°40' E 135°14'2 2.2
2014-Jul-23 01:33N 34°37' E 135°14'1111.2
2014-Jul-23 00:33N 34°37' E 135°01'1211.9
2014-Jul-22 23:31N 34°32' E 134°47'10010.0
2014-Jul-22 13:28N 34°05' E 132°50'1011.1
2014-Jul-22 12:33N 33°57' E 132°42'110 3.8
2014-Jul-21 07:33N 34°33' E 134°47'1413.7
2014-Jul-21 06:33N 34°36' E 135°03'10 9.8
2014-Jul-21 05:33N 34°40' E 135°15'0 0.2
2014-Jul-21 04:33N 34°39' E 135°14'0 0.0
2014-Jul-21 03:33N 34°39' E 135°14'1 0.5
2014-Jul-21 02:33N 34°39' E 135°15'1 0.7
2014-Jul-21 01:30N 34°38' E 135°15'1 1.0
2014-Jul-21 00:33N 34°38' E 135°14'1010.5
2014-Jul-20 23:34N 34°36' E 135°02'  
2014-Jul-18 05:19N 34°06' E 134°56'1012.9
2014-Jul-18 04:33N 34°16' E 134°59'1212.3
2014-Jul-18 03:33N 34°27' E 135°05'1413.6
2014-Jul-18 02:33N 34°38' E 135°15'2 1.3
2014-Jul-18 01:22N 34°40' E 135°14'0 0.0
2014-Jul-18 00:22N 34°40' E 135°14'0 0.1
2014-Jul-17 23:28N 34°40' E 135°14'1 1.1
2014-Jul-17 22:33N 34°39' E 135°15'0 0.1
2014-Jul-17 21:33N 34°39' E 135°15'4 3.8
2014-Jul-17 20:34N 34°36' E 135°11'1211.6
2014-Jul-17 19:34N 34°36' E 134°57'1 0.0
2014-Jul-16 06:33N 34°37' E 134°58'1010.5
2014-Jul-16 05:33N 34°37' E 135°11'1211.7
2014-Jul-16 04:34N 34°37' E 135°25'0 0.4
2014-Jul-16 03:33N 34°38' E 135°25'5 5.5
2014-Jul-16 02:34N 34°39' E 135°19'3 3.3
2014-Jul-16 01:33N 34°39' E 135°15'0 0.0
2014-Jul-16 00:33N 34°39' E 135°15'0 0.0
2014-Jul-15 23:33N 34°39' E 135°15'1 0.7
2014-Jul-15 22:34N 34°39' E 135°15'3 3.3
2014-Jul-15 21:33N 34°37' E 135°12'1312.9
2014-Jul-15 20:33N 34°36' E 134°56'  

Dump ship's entire track history